Regional Weather Roundup
Issued by NWS

Home | Current Version | Previous Version | Text Only | Print | Product List | Glossary Off
Versions: 1 2 3 4 5 6 7 8 9 10 11 12 13 14 15 16 17 18 19 20 21 22 23 24 25 26 27 28 29 30 31 32 33 34 35 36 37 38 39 40 41 42 43 44 45 46 47 48 49 50

000
ASUS45 KCYS 040210
RWRWY

WYOMING REGIONAL WEATHER ROUNDUP
NATIONAL WEATHER SERVICE CHEYENNE WY
800 PM MDT THU SEP 03 2015

NOTE:  "FAIR" INDICATES FEW OR NO CLOUDS BELOW 12,000 FEET
WITH NO SIGNIFICANT WEATHER AND/OR OBSTRUCTIONS TO VISIBILITY.

WYZ001-040300-
YELLOWSTONE NATIONAL PARK

CITY           SKY/WX    TMP DP  RH WIND       PRES   REMARKS
LK YELLOWSTONE   N/A     60  36  40 CALM      30.03F
W YELLOWSTONE  NOT AVBL

$$
WYZ002>013-054>058-071-098>099-040300-
NORTHERN WYOMING

CITY           SKY/WX    TMP DP  RH WIND       PRES   REMARKS
JACKSON        FAIR      66  36  32 SW3       29.90F
CODY           MOCLDY    66  45  45 N3        29.85S
GREYBULL       FAIR      76  38  25 N17       29.73R
WORLAND        FAIR      76  32  20 S7        29.73S
SHERIDAN       FAIR      72  39  30 NW17      29.81R
BUFFALO        FAIR      71  43  36 NW18G26   29.84R
GILLETTE       FAIR      82  38  20 S15       29.77S
HULETT         FAIR      75  46  35 E10       29.80F
NEWCASTLE      FAIR      79  39  24 SE12      29.81R

$$
WYZ014>020-022>026-101>103-040300-
CENTRAL WYOMING

CITY           SKY/WX    TMP DP  RH WIND       PRES   REMARKS
BIG PINEY      FAIR      62  34  35 W8        29.97F
PINEDALE       FAIR      66  32  28 SW6       29.98F
DUBOIS         FAIR      64  30  27 W8        29.96R
LANDER         FAIR      71  31  22 S15       29.83S
RIVERTON       FAIR      76  30  18 S9        29.84S
CASPER         FAIR      73  42  32 S28G36    29.89R
DOUGLAS        LGT RAIN  65  53  65 E13       29.94F

$$
WYZ021-027>030-104>119-040300-
SOUTHERN WYOMING

CITY           SKY/WX    TMP DP  RH WIND       PRES   REMARKS
EVANSTON       FAIR      70  24  17 SW17      29.98S
KEMMERER       FAIR      66  27  22 SW7       29.99S
FORT BRIDGER   PTCLDY    72  28  20 SW10      30.01R
ROCK SPRINGS   FAIR      70  32  24 S13       29.97S
DIXON          FAIR      64  46  53 E13       30.06S
RAWLINS        FAIR      61  43  51 SE8       30.05S
SARATOGA       FAIR      57  46  67 SE21G26   30.09F
LARAMIE        MOCLDY    54  32  43 CALM      30.13F
CHEYENNE       CLOUDY    65  47  52 NW14G23   30.04F
TORRINGTON     FAIR      74  49  41 W9        29.89R
PINE BLUFFS    MOCLDY    68  46  45 W13       29.99R

$$


USA.gov is the U.S. government's official web portal to all federal, state and local government web resources and services.